This demonstration page uses our WeatherBlox Daily Observations layout. Learn more.

Left ArrowRight Arrow

Hourly Observations for March 14, 2023

Temp ( °F °C ) Dew Point ( °F °C ) Humidity (%) Winds ( mph kmh ) Pressure ( in mb ) Visibility ( mi km ) Precip ( " mm )
12:15 am 00:15 Cloudy 28 -2.5 21 -6 77 77 NW 7 11 30.26 1025 10 16 0.00 0.00
12:35 am 00:35 Cloudy 28 -2.5 21 -6 77 77 NW 7 11 30.26 1025 10 16 0.00 0.00
12:55 am 00:55 Cloudy 28 -2.5 22 -5.7 79 79 NW 10 17 30.26 1025 10 16 0.00 0.00
1:15 am 01:15 Cloudy 28 -2.5 22 -5.7 79 79 NW 10 17 30.26 1025 10 16 0.00 0.00
1:35 am 01:35 Cloudy 27 -2.6 21 -5.9 78 78 NW 12 19 30.26 1025 10 16 0.00 0.00
1:55 am 01:55 Cloudy 27 -2.8 21 -6.1 78 78 NW 10 17 30.26 1025 10 16 0.00 0.00
2:15 am 02:15 Cloudy 27 -3 20 -6.5 77 77 WNW 8 13 30.26 1025 10 16 0.00 0.00
2:35 am 02:35 Cloudy 27 -3 21 -6.1 79 79 WNW 7 11 30.27 1025 10 16 0.00 0.00
2:55 am 02:55 Cloudy 27 -3 22 -5.7 82 82 WNW 9 15 30.27 1025 10 16 0.00 0.00
3:15 am 03:15 Cloudy 26 -3.2 22 -5.7 83 83 WNW 8 13 30.27 1025 10 16 0.00 0.00
3:35 am 03:35 Mostly Cloudy 26 -3.5 21 -6.2 81 81 WNW 8 13 30.27 1025 10 16 0.00 0.00
3:55 am 03:55 Cloudy 26 -3.5 21 -6.3 81 81 WNW 8 13 30.27 1025 10 16 0.00 0.00
4:15 am 04:15 Cloudy 26 -3.4 20 -6.9 77 77 WNW 8 13 30.27 1025 10 16 0.00 0.00
4:35 am 04:35 Cloudy 26 -3.5 19 -7 77 77 WNW 8 13 30.27 1025 10 16 0.00 0.00
4:55 am 04:55 Cloudy 26 -3.5 19 -7 77 77 WNW 9 15 30.28 1026 10 16 0.00 0.00
5:15 am 05:15 Cloudy 26 -3.6 20 -6.9 78 78 WNW 9 15 30.28 1026 10 16 0.00 0.00
5:35 am 05:35 Cloudy with Light Snow 26 -3.6 20 -6.9 78 78 WNW 10 17 30.28 1026 10 16 0.00 0.00
5:55 am 05:55 Cloudy 26 -3.5 20 -6.7 78 78 WNW 13 20 30.28 1026 10 16 0.00 0.00
6:15 am 06:15 Cloudy 25 -3.7 19 -7 78 78 WNW 12 19 30.29 1026 10 16 0.00 0.00
6:35 am 06:35 Cloudy 26 -3.6 20 -6.7 79 79 WNW 13 20 30.29 1026 10 16 0.00 0.00
6:55 am 06:55 Cloudy 26 -3.5 20 -6.7 78 78 WNW 8 13 30.29 1026 10 16 0.00 0.00
7:15 am 07:15 Cloudy 26 -3.5 20 -6.7 78 78 WNW 10 17 30.30 1026 10 16 0.00 0.00
7:35 am 07:35 Cloudy 25 -3.7 19 -7 78 78 WNW 8 13 30.31 1027 10 16 0.00 0.00
7:55 am 07:55 Cloudy 25 -3.8 20 -6.9 79 79 WNW 6 9 30.32 1027 10 16 0.00 0.00
8:15 am 08:15 Cloudy 25 -3.8 19 -7 78 78 WNW 9 15 30.33 1027 10 16 0.00 0.00
8:35 am 08:35 Cloudy 25 -3.8 19 -7 78 78 NW 9 15 30.34 1028 10 16 0.00 0.00
8:55 am 08:55 Cloudy with Light Snow 25 -3.7 20 -6.6 80 80 NW 9 15 30.34 1028 10 16 0.00 0.00
9:15 am 09:15 Cloudy with Light Snow 26 -3.3 21 -6.3 80 80 NW 12 19 30.35 1028 10 16 0.00 0.00
9:35 am 09:35 Cloudy with Light Snow 26 -3.3 21 -6.2 80 80 NW 9 15 30.36 1028 7 11 0.00 0.00
9:55 am 09:55 Partly Cloudy 27 -2.7 21 -6 78 78 NW 10 17 30.36 1028 10 16 0.00 0.00
10:15 am 10:15 Mostly Cloudy 28 -2.5 21 -6.1 76 76 NW 13 20 30.37 1028 10 16 0.00 0.00
10:35 am 10:35 Cloudy 28 -2.4 20 -6.5 73 73 NNW 14 22 30.38 1029 10 16 0.00 0.00
10:55 am 10:55 Cloudy 29 -1.9 20 -6.5 71 71 NNW 16 26 30.39 1029 10 16 0.00 0.00
11:15 am 11:15 Cloudy 29 -1.9 20 -6.7 70 70 NNW 16 26 30.39 1029 10 16 0.00 0.00
11:35 am 11:35 Cloudy 29 -1.6 20 -6.9 67 67 NNW 13 20 30.39 1029 10 16 0.00 0.00
11:55 am 11:55 Cloudy 30 -1.2 20 -6.9 65 65 NW 15 24 30.39 1029 10 16 0.00 0.00
12:15 pm 12:15 Cloudy 30 -1.2 19 -7.1 64 64 NNW 12 19 30.40 1030 10 16 0.00 0.00
12:35 pm 12:35 Mostly Cloudy 30 -1.2 18 -7.9 60 60 NW 13 20 30.39 1029 10 16 0.00 0.00
12:55 pm 12:55 Mostly Cloudy 32 -0.1 20 -6.5 62 62 NW 13 20 30.39 1029 10 16 0.00 0.00
1:15 pm 13:15 Mostly Cloudy 32 -0.1 19 -7.3 58 58 NW 9 15 30.39 1029 10 16 0.00 0.00
1:35 pm 13:35 Mostly Cloudy 32 -0.2 19 -7.4 58 58 WNW 13 20 30.39 1029 10 16 0.00 0.00
1:55 pm 13:55 Mostly Cloudy 32 0 20 -6.8 60 60 NW 10 17 30.39 1029 10 16 0.00 0.00
2:15 pm 14:15 Partly Cloudy 32 0.1 19 -7.1 58 58 NNW 12 19 30.39 1029 10 16 0.00 0.00
2:35 pm 14:35 Mostly Cloudy 33 0.3 20 -6.4 61 61 NW 10 17 30.39 1029 10 16 0.00 0.00
2:55 pm 14:55 Mostly Cloudy 34 1.1 20 -6.5 57 57 NW 12 19 30.37 1029 10 16 0.00 0.00
3:15 pm 15:15 Mostly Cloudy 35 1.7 21 -6 57 57 WNW 14 22 30.36 1028 10 16 0.00 0.00
3:35 pm 15:35 Mostly Cloudy 34 1.1 21 -6.1 59 59 WNW 9 15 30.36 1028 10 16 0.00 0.00
3:55 pm 15:55 Mostly Cloudy 36 2.2 22 -5.5 57 57 NW 10 17 30.36 1028 10 16 0.00 0.00
4:15 pm 16:15 Mostly Cloudy 35 1.7 21 -6.2 56 56 WNW 9 15 30.36 1028 10 16 0.00 0.00
4:35 pm 16:35 Mostly Cloudy 36 2.2 22 -5.3 58 58 NNW 12 19 30.36 1028 10 16 0.00 0.00
4:55 pm 16:55 Partly Cloudy 35 1.9 21 -5.9 56 56 N 13 20 30.36 1028 10 16 0.00 0.00
5:15 pm 17:15 Mostly Cloudy 36 2 21 -6.2 54 54 NW 13 20 30.36 1028 10 16 0.00 0.00
5:35 pm 17:35 Partly Cloudy 36 2 20 -6.4 54 54 WNW 14 22 30.36 1028 10 16 0.00 0.00
5:55 pm 17:55 Sunny 36 2.1 21 -6.3 54 54 WNW 8 13 30.35 1028 10 16 0.00 0.00
6:15 pm 18:15 Sunny 36 2 20 -6.4 54 54 NW 8 13 30.35 1028 10 16 0.00 0.00
6:35 pm 18:35 Sunny 35 1.7 20 -6.9 53 53 NW 9 15 30.35 1028 10 16 0.00 0.00
6:55 pm 18:55 Sunny 35 1.6 20 -6.7 54 54 NW 8 13 30.36 1028 10 16 0.00 0.00
7:15 pm 19:15 Sunny 34 1.3 20 -6.8 55 55 WNW 10 17 30.36 1028 10 16 0.00 0.00
7:35 pm 19:35 Sunny 33 0.6 21 -6 61 61 NNW 9 15 30.37 1028 10 16 0.00 0.00
7:55 pm 19:55 Clear 32 0 22 -5.7 65 65 NNW 5 7 30.37 1028 10 16 0.00 0.00
8:15 pm 20:15 Clear 31 -0.5 22 -5.5 69 69 N 5 7 30.37 1028 10 16 0.00 0.00
8:35 pm 20:35 Clear 30 -0.9 22 -5.8 69 69 NNW 3 6 30.37 1028 10 16 0.00 0.00
8:55 pm 20:55 Clear 30 -1.3 22 -5.8 71 71 N 3 6 30.37 1029 10 16 0.00 0.00
9:15 pm 21:15 Clear 29 -1.5 21 -6 71 71 N 6 9 30.37 1029 10 16 0.00 0.00
9:35 pm 21:35 Clear 29 -1.7 21 -6.2 71 71 N 5 7 30.37 1029 10 16 0.00 0.00
9:55 pm 21:55 Clear 28 -2.3 20 -6.4 73 73 N 3 6 30.38 1029 10 16 0.00 0.00
10:15 pm 22:15 Clear 28 -2.3 21 -6.1 75 75 N 3 6 30.38 1029 10 16 0.00 0.00
10:35 pm 22:35 Clear 28 -2.5 21 -6.1 76 76 Calm 30.38 1029 10 16 0.00 0.00
10:55 pm 22:55 Clear 27 -3 22 -5.7 82 82 Calm 30.39 1029 10 16 0.00 0.00
11:15 pm 23:15 Clear 27 -3 21 -6 80 80 Calm 30.39 1029 10 16 0.00 0.00
11:35 pm 23:35 Clear 26 -3.3 22 -5.6 84 84 Calm 30.39 1029 10 16 0.00 0.00
11:55 pm 23:55 Clear 24 -4.5 20 -6.5 86 86 Calm 30.40 1029 10 16 0.00 0.00

Powered by AerisWeather